Location: Boiro
(42.6475°N, 8.8834°W)
Time: 05:34:56
(UTC+01:00)

Envisat - Pass Details

Date: 24 October 2021
Orbit: 764 x 766 km, 98.2° (Epoch: 04 December)

Event Time Altitude Azimuth Distance (km) Brightness Sun altitude
Rises 07:58:04 0° 10° (N) 3,242 6.3 -11.9°
Reaches altitude 10° 08:00:24 10° 9° (N) 2,311 5.5 -11.5°
Maximum altitude 08:05:27 71° 286° (WNW) 812 2.9 -10.6°
Drops below altitude 10° 08:10:29 10° 203° (SSW) 2,294 5.3 -9.7°
Sets 08:12:47 0° 201° (SSW) 3,215 6.1 -9.3°
